Погода Нижний Чир

Погода Нижний Чир : погода сейчас, прогноз погоды и архив. Всё, что Вы хотите узнать о погоде Нижний Чир!

Хотите узнать прогноз погоды Нижний Чир? Тогда Вам сюда: Погода Нижний Чир

Поиск расширенной информации на нашем сайте:

Другие новости

Новости СМИ2

Главная страница сайта

Новости сайта

03.07.2017

Напоминаем, что на нашем специализированном сайте Метеоцентр.Азия вы можете получить высокодетализированные автоматические прогнозы погоды по пунктам России, СНГ и мира в авиационном формате (включающие направление и скорость ветра, видимость, явления погоды, количество и форму облачности, нижнюю и верхнюю границу облачности).


Погода Нижний Чир - сегодня

Время (UTC), дата Ветер
(°,м/с) 
Видим.   Явления Облачность Т
(°С)
Тd
(°С)
f(%) Тe
(°С)
Pmin
(гПа)
dP
(гПа)
Po
(мм)
O2
(г/м3)
Тmin Tmax R s Состояние
почвы
09 16.08.18 020 (С) 20000 м    ясно 
+29.4 +1.2 16 +29  1016.7  -0.3  757  275           
12 16.08.18 010 (С) 20000 м    3/3 1000 м 
[Cu med, cong]
+30.8 +1.4 15 +31  1015.3  -1.3  756  273           
15 16.08.18 020 (С) 20000 м    1/1 1000 м 
[Cu med, cong]
+31.2 +12.3 31 +35  1014.1  -1.2  755  271    +32.5       
18 16.08.18 020 (С) 20000 м    ясно 
+27.6 +14.7 45 +36  1014.8  1.3  755  273           
21 16.08.18 030 (СВ) 20000 м    ясно 
+24.6 +1.5 22 +25  1015.1  0.2  755  279           
00 17.08.18 330 (СЗ) 20000 м    ясно 
+22.4 +12.6 54 +27  1014.9  -0.3  755  279           
03 17.08.18 340 (С) 20000 м    ясно 
+19.8 +8.3 47 +21  1015.2  0.2  755  282  +19        сухая 
06 17.08.18 080 (В) 20000 м    3/0 верхняя 
[Ci fib]
+24.6 +10.7 42 +27  1014.8  -0.2  755  277           
09 17.08.18 060 (СВ) 20000 м    3/1 1000 м средняя 
[Cu hum|Ac trans]
+31 +5.2 20 +31  1014.2  -0.5  755  272           
12 17.08.18 040 (СВ) 20000 м    3/3 1000 м 
[Cu hum]
+32.8 +4.2 17 +33  1013.1  -1  754  271           
15 17.08.18 360 (С) 20000 м    3/3 1000 м 
[Cu med, cong]
+32 +5.9 20 +32  1012  -1.1  753  271          замёрзшая 
18 17.08.18 240 (ЮЗ) 6{10}  20000 м    3/3 600 м средняя 
[Sc|Ac trans]
+28 +11.3 35 +31  1012.8  0.7  754  273           
21 17.08.18 300 (СЗ) 20000 м    ясно 
+24.1 +12.5 48 +29  1013.5  0.6  754  277           
00 18.08.18 020 (С) 8-10{12}  20000 м    ясно 
+22.1 +14.9 64 +30  1013.7  0.1  754  278           
03 18.08.18 090 (В) 10  20000 м    3/3 600 м 
[Sc]
+20 +13.6 67 +26  1014.2  0.5  755  281  +20        сухая 
06 18.08.18 060 (СВ) 8-10{14}  20000 м    3/3 1000 м 
[Cu hum]
+21.9 +13 57 +27  1015.6  1.4  756  279  +19.6         
09 18.08.18 070 (В) 8-10{14}  20000 м    1/1 1000 м 
[Cu hum]
+25.1 +11.8 43 +29  1015.7  0.2  756  277           
12 18.08.18 070 (В) 7{14}  20000 м    1/1 1000 м 
[Cu hum]
+25.9 +9.9 36 +27  1015.4  -0.3  756  276           
15 18.08.18 070 (В) 7{14}  20000 м    ясно 
+24.8 +6.3 30 +25  1015.8  0.4  756  278    +26.4       
18 18.08.18 060 (СВ) 8-10{14}  20000 м    ясно 
+22.7 +7.4 37 +23  1017.6  1.7  757  281           
21 18.08.18 070 (В) 11-13{16}  20000 м    ясно 
+21 +8.7 45 +21  1017.9  0.3  758  282           
00 19.08.18 070 (В) 11-12{18}  20000 м    ясно 
+19.8 +10.4 55 +21  1019  758  283           
03 19.08.18 050 (СВ) 8-10  20000 м    ясно 
+17.7 +9.5 59 +17  1019.6  0.6  759  285  +17        сухая 
06 19.08.18 040 (СВ) 8-10{13}  20000 м    ясно 
+19.4 +7.7 47 +19  1020.5  0.9  759  284           
09 19.08.18 020 (С) 6{11}  20000 м    ясно 
+22.2 +3 28 +22  1020.1  -0.3  759  282           
Время (UTC), дата Ветер
(°,м/с) 
Видим.   Явления Облачность Т
(°С)
Тd
(°С)
f(%) Тe
(°С)
Pmin
(гПа)
dP
(гПа)
Po
(мм)
O2
(г/м3)
Тmin Tmax R s Состояние
почвы

Для получения пояснительной информации подведите курсор к названию столбца.

ПОГОДА Нижний Чир - архив

Всё, что Вы хотите узнать о погоде Нижний Чир - удобно и подробно!

Выберите нужную дату (начиная с 1 января 2015* года) и нажмите кнопку "Найти".
Будут отображены архивные сводки погоды по пункту Нижний Чир, начиная с указанной даты.


Отображать данные в формате CSV (для использования в таблицах Excel)


Внимание! Наш архив погоды предназначен исключительно для личного некоммерческого использования в познавательных целях. Если Вам необходимы официальные справки о состоянии погоды (для производственных, юридических, коммерческих и т.п. целей), обращайтесь в органы Росгидромета.

*Примечание: данная дата относится к архиву по метеостанциям СССР (Россия, СНГ, Балтия).
Архив по метеостанциям Зарубежной Европы и Азии (кроме Китая) хранится 10 дней, по другим регионам земного шара (Китай, Африка, Америка, Австралия, Океания) - 1 день.

Нижний Чир - район местоположения метеостанции


Название, широта, долгота, высота метеостанции:
Нижний Чир 48.3°ш. 43.1°д. 68 м над ур. моря [Российская Федерация]

Дополнительная информация

В oтличие oт бoльшинства пoгoдных сайтoв мы публикуем пoдрoбную метеoинфoрмацию в детальнoм прoфессиoнальнoм фoрмате.

Характеристики температуры и влажнoсти вoздуха измеряются на высoте 2 м в тени вдали oт зданий и деревьев.
Скoрoсть ветра измеряется на высoте 10 м (на урoвне рoста челoвека скoрoсть ветра ниже в 1.5-2 раза). Если метеoстанция нахoдится в гoрoде или в лесу, тo скoрoсть ветра занижена на 2-4 м/с пo сравнению с oткрытым местoм. Скoрoсть ветра над акватoриями крупных рек и oзёр, а также на вершинах хoлмoв на 2-5 м/с выше, чем в oбычных услoвиях.
Атмoсфернoе давление в разных тoчках местнoсти мoжет значительнo oтличаться oт давления на метеoстанции, в зависимoсти oт услoвий рельефа (при пoдъёме на 10 м давление пoнижается примернo на 1 мм рт.ст.).